SCP
0 0 0 0 0 0 0 0 0 0 0 0 0 0 0 0 0 0 0 0 0 0
0 0 0 0 0 0 0 0 0 0 0 0 0 0 0 0 0 0 0 0 0 0
0 0 0 0 0 0 0 0 0 0 0 0 0 0 0 0 0 0 0 0 0 0
0 0 0 0 0 0 0 0 0 0 0 0 0 0 0 0 0 0 0 0 0 0
0 0 0 0 0 0 0 0 0 0 0 0 0 0 0 0 0 0 0 0 0 0
0 0 0 0 0 0 0 0 0 0 0 0 0 0 0 0 0 0 0 0 0 0
0 0 0 0 0 0 0 0 0 0 0 0 0 0 0 0 0 0 0 0 0 0
0 0 0 0 0 -0 -0 0 0 0 0 0 0 0 0 0 0 0 0 0 0 0
0 0 0 0 0 0 0 0 0 0 0 0 0 0 0 0 0 0 0 0 0 0
0 0 0 -0 -0 0 0 0 0 0 0 0 0 0 0 0 0 0 0 0 0 0
0 0 0 0 0 0 0 0 0 0 0 0 0 0 0 0 0 0 0 0 0 0
0 0 0 0 0 0 0 0 0 0 0 0 0 0 0 0 0 0 0 0 0 0
0 0 0 0 0 0 0 0 0 0 0 0 0 0 0 0 0 0 0 0 0 0
0 0 0 0 -0 0 0 0 0 0 0 0 0 0 0 0 0 0 0 0 0 0
Wind_Speed_500mb
24 21 20 22 24 27 32 35 38 42 47 51 53 55 56 60 63 64 69 70 71 73
31 31 29 25 26 29 33 35 37 39 42 46 49 49 49 54 59 64 66 70 70 69
33 34 36 36 34 35 38 41 42 42 43 45 47 49 51 52 54 57 62 63 71 73
36 35 36 37 39 41 42 43 46 48 50 51 52 51 53 55 55 54 57 60 60 64
41 40 42 44 45 46 48 50 52 56 58 59 59 58 56 56 57 59 59 58 60 65
40 41 43 47 51 54 57 58 60 64 66 67 64 61 57 59 59 58 58 58 63 64
46 48 48 49 53 57 59 61 61 61 64 66 66 66 66 63 61 60 58 57 60 64
54 56 58 59 59 60 60 60 62 62 61 62 62 64 66 64 62 61 62 59 57 58
55 56 57 58 59 62 63 60 58 58 57 57 57 60 60 59 55 53 53 55 53 54
61 59 58 57 55 54 54 55 54 53 52 51 51 53 56 55 44 39 39 40 40 38
57 56 56 55 55 54 52 50 47 45 44 45 46 49 47 46 44 39 35 32 31 30
61 60 58 55 52 50 47 44 44 42 41 42 42 45 46 45 38 34 33 33 31 30
57 56 53 52 49 46 44 42 41 40 40 40 42 43 41 36 33 31 29 28 27 28
47 44 43 42 44 42 40 39 39 38 37 36 38 36 35 33 30 27 27 28 27 29
Wind_Direction_500mb
25 18 6 351 340 332 326 322 317 310 305 301 296 292 288 285 282 279 278 276 275 277
355 350 346 343 340 337 333 330 327 323 317 311 303 296 290 284 282 282 279 278 278 275
343 333 327 324 322 323 325 325 326 326 324 320 314 307 298 288 282 281 278 281 275 272
348 343 334 324 320 318 319 320 322 322 324 324 321 314 305 298 289 282 282 283 280 279
342 338 332 328 327 324 321 319 317 315 314 313 312 310 306 301 296 291 283 281 282 281
335 335 332 331 329 326 320 316 312 311 310 310 310 307 303 298 296 292 289 283 281 278
333 332 331 328 325 321 318 315 312 310 308 307 305 303 301 299 296 292 288 284 278 277
328 326 324 323 322 319 316 314 312 310 308 307 306 304 301 299 298 297 293 287 281 277
324 323 322 320 320 320 317 316 316 315 314 312 310 305 303 304 305 303 297 293 288 283
323 324 325 326 324 322 320 318 317 317 319 321 322 320 321 320 318 314 307 301 296 292
324 327 329 329 328 327 327 326 323 320 319 321 325 328 337 341 336 327 323 317 312 309
327 329 331 331 333 333 332 331 331 330 329 327 327 328 334 339 340 339 335 333 329 325
327 328 331 333 336 338 336 335 332 330 329 331 331 331 339 342 341 334 327 323 320 321
327 330 333 338 339 341 339 335 334 330 333 338 340 350 354 352 353 351 347 339 334 337
Wind_Speed_850mb
24 21 20 22 24 27 32 35 38 42 47 51 53 55 56 60 63 64 69 70 71 73
31 31 29 25 26 29 33 35 37 39 42 46 49 49 49 54 59 64 66 70 70 69
33 34 36 36 34 35 38 41 42 42 43 45 47 49 51 52 54 57 62 63 71 73
36 35 36 37 39 41 42 43 46 48 50 51 52 51 53 55 55 54 57 60 60 64
41 40 42 44 45 46 48 50 52 56 58 59 59 58 56 56 57 59 59 58 60 65
40 41 43 47 51 54 57 58 60 64 66 67 64 61 57 59 59 58 58 58 63 64
46 48 48 49 53 57 59 61 61 61 64 66 66 66 66 63 61 60 58 57 60 64
54 56 58 59 59 60 60 60 62 62 61 62 62 64 66 64 62 61 62 59 57 58
55 56 57 58 59 62 63 60 58 58 57 57 57 60 60 59 55 53 53 55 53 54
61 59 58 57 55 54 54 55 54 53 52 51 51 53 56 55 44 39 39 40 40 38
57 56 56 55 55 54 52 50 47 45 44 45 46 49 47 46 44 39 35 32 31 30
61 60 58 55 52 50 47 44 44 42 41 42 42 45 46 45 38 34 33 33 31 30
57 56 53 52 49 46 44 42 41 40 40 40 42 43 41 36 33 31 29 28 27 28
47 44 43 42 44 42 40 39 39 38 37 36 38 36 35 33 30 27 27 28 27 29
Wind_Direction_850mb
25 18 6 351 340 332 326 322 317 310 305 301 296 292 288 285 282 279 278 276 275 277
355 350 346 343 340 337 333 330 327 323 317 311 303 296 290 284 282 282 279 278 278 275
343 333 327 324 322 323 325 325 326 326 324 320 314 307 298 288 282 281 278 281 275 272
348 343 334 324 320 318 319 320 322 322 324 324 321 314 305 298 289 282 282 283 280 279
342 338 332 328 327 324 321 319 317 315 314 313 312 310 306 301 296 291 283 281 282 281
335 335 332 331 329 326 320 316 312 311 310 310 310 307 303 298 296 292 289 283 281 278
333 332 331 328 325 321 318 315 312 310 308 307 305 303 301 299 296 292 288 284 278 277
328 326 324 323 322 319 316 314 312 310 308 307 306 304 301 299 298 297 293 287 281 277
324 323 322 320 320 320 317 316 316 315 314 312 310 305 303 304 305 303 297 293 288 283
323 324 325 326 324 322 320 318 317 317 319 321 322 320 321 320 318 314 307 301 296 292
324 327 329 329 328 327 327 326 323 320 319 321 325 328 337 341 336 327 323 317 312 309
327 329 331 331 333 333 332 331 331 330 329 327 327 328 334 339 340 339 335 333 329 325
327 328 331 333 336 338 336 335 332 330 329 331 331 331 339 342 341 334 327 323 320 321
327 330 333 338 339 341 339 335 334 330 333 338 340 350 354 352 353 351 347 339 334 337